Location: Palomar Mountain Lodge
(33.3110°N, 116.8495°W)
Time: 03:30:50
(UTC-07:00)

Cosmos 1943 Rocket - Pass Details

Date: 19 May 2017
Orbit: 812 x 844 km, 71.0° (Epoch: 23 June)

Event Time Altitude Azimuth Distance (km) Brightness Sun altitude
Rises 20:09:14 0° 357° (N) 3,388 5.8 -5.6°
Reaches altitude 10° 20:12:37 10° 18° (NNE) 2,444 4.8 -6.2°
Maximum altitude 20:16:09 17° 57° (ENE) 1,994 3.9 -6.9°
Drops below altitude 10° 20:19:39 10° 96° (E) 2,423 4.0 -7.5°
Enters shadow 20:20:25 - 102° (ESE) 2,610 4.1 -7.6°
